Location: Bidart
(43.4376°N, 1.5913°W)
Time: 19:58:14
(UTC+00:00)

ISS - Pass Details

Date: 23 January 2026
Orbit: 413 x 429 km, 51.6° (Epoch: 11 February)

Event Time Altitude Azimuth Distance (km) Brightness Sun altitude
Rises 19:15:24 0° 304° (NW) 2,369 0.8 -23.3°
Reaches altitude 10° 19:17:36 10° 313° (NW) 1,506 -0.4 -23.7°
Enters shadow 19:19:02 21° 328° (NNW) 1,003 -1.6 -24.0°
